[[{"header":{"parameterUnit":"m.s-1","parameterCategory":1,"la1":30.2991,"la2":30.254,"lo1":-89.0895,"lo2":-89.0444,"dy":0.0017,"dx":0.0017,"nx":28,"ny":28,"refTime":"2025-03-08T09:00:00:Z","depth":0,"parameterNumber":2,"parameterNumberName":"U-component_of_WINDS"},"data":[0,0,0,0,0,0,0,0,0,0,0,0,0,0,0,0,0,0,0,0,0,0,0,0,0,0,0,0,0,0,0,0,0,0,0,0,0,0,0,0,0,0,0,0,0,0,0,0,0,0,0,0,0,0,0,0,0,0,7.3514,7.3516,0,7.369,7.3692,7.3694,7.3649,7.3646,7.3642,7.3639,7.3819,7.3827,7.3835,0,0,0,0,0,0,0,0,0,0,0,0,0,7.314,7.3147,7.3514,7.3516,7.3518,7.369,7.3692,7.3695,7.365,7.3646,7.3641,7.3637,7.3817,7.3826,7.3836,0,0,0,0,0,0,0,0,0,0,0,0,0,7.3308,7.3149,7.3513,7.3516,7.3518,7.3689,7.3692,7.3695,7.3651,7.3645,7.364,7.3635,7.3814,7.3825,7.3837,7.4016,0,0,7.3874,7.3879,0,0,0,0,0,0,0,0,7.3298,7.3321,7.3514,7.3517,7.3519,7.3642,7.3626,7.3803,7.3652,7.3601,7.3639,7.3633,7.3765,7.378,7.3825,7.4024,7.4032,7.3875,7.3883,7.3888,7.3891,0,0,0,0,0,0,0,7.3287,7.3314,7.3583,7.3517,7.352,7.351,7.3528,7.366,7.371,7.3605,7.3602,7.3623,7.3765,7.3813,7.3829,7.4035,7.3875,7.3886,7.3893,7.3898,7.4392,7.4397,0,0,0,0,0,0,7.3273,7.3304,7.3578,7.3589,7.3394,7.352,7.3541,7.3608,7.3708,7.3718,7.3628,7.362,7.3795,7.3815,7.3835,7.4052,7.3888,7.3899,7.3906,7.4386,7.4393,7.4399,0,0,0,0,0,0,7.3265,7.3298,7.3571,7.3446,7.348,7.3532,7.3608,7.3614,7.3662,7.3725,7.3734,7.3668,7.3792,7.3818,7.3972,7.4057,7.3904,7.3915,7.4379,7.4388,7.4396,7.4486,0,0,0,0,0,0,7.3254,7.3295,7.3363,7.3448,7.3487,7.3704,7.3614,7.3622,7.3683,7.3676,7.3765,7.3775,7.379,7.3954,7.3984,7.4071,7.3925,7.4371,7.4383,7.4393,7.4476,7.4497,7.4515,0,0,0,0,0,7.3241,7.3381,7.3366,7.34,7.3573,7.3709,7.3732,7.3746,7.369,7.376,7.38,7.3772,7.4044,7.397,7.4003,7.4096,7.4366,7.438,7.4393,7.4467,7.4493,7.4515,0,0,0,0,0,0,7.3304,7.3392,7.3377,7.3548,7.3622,7.3701,7.3789,7.3773,7.3863,7.3852,7.3866,7.3887,7.4044,7.4085,7.4002,7.4275,7.4197,7.4217,7.4242,7.4267,7.4287,7.4273,7.3935,0,0,0,0,0,7.3338,7.3441,7.3512,7.3657,7.3695,7.3736,7.3796,7.3801,7.3877,7.3908,7.396,7.4035,7.4138,7.4205,7.4302,7.4482,7.4501,7.4562,7.4582,7.4598,7.4615,7.4715,7.4743,7.4443,7.4443,7.4442,0,0,7.3409,7.3469,7.3534,7.3671,7.3728,7.3836,7.3762,7.3878,7.3958,7.3926,7.4074,7.4115,7.4201,7.4368,7.4445,7.4408,7.4703,7.4615,7.4627,7.4636,7.4731,7.476,7.4785,7.4452,7.445,7.4449,0,0,7.3593,7.3649,7.3776,7.3836,7.3924,7.3951,7.3981,7.4065,7.4091,7.424,7.4218,7.4314,7.449,7.4552,7.4607,7.4817,7.4795,7.4849,7.4951,7.5048,7.5072,7.5093,7.5169,7.5196,7.4866,7.4866,7.4866,0,7.3669,7.383,7.3843,7.3962,7.4024,7.4,7.413,7.4187,7.4303,7.4346,7.4303,7.4524,7.458,7.4763,7.4814,7.4859,7.4895,7.4838,7.5067,7.5089,7.5108,7.5181,7.5209,7.4872,7.4871,7.4871,7.487,0,7.3921,7.4033,7.4125,7.4238,7.431,7.4434,7.4466,7.4538,7.4537,7.4569,7.4722,7.4789,7.49,7.4944,7.4944,7.5128,7.5102,7.5063,7.4985,7.5143,7.5211,7.5239,7.4881,7.4879,7.4877,7.4875,0,0,7.4148,7.4268,7.4302,7.4353,7.445,7.4537,7.4661,7.477,7.4832,7.4913,7.5017,7.5168,7.5133,7.5195,7.5203,7.5288,7.5452,7.5238,7.5241,7.5276,7.566,7.5688,7.572,7.5438,7.5443,7.5448,7.5653,0,7.434,7.4557,7.4574,7.477,7.4874,7.4854,7.4962,7.5034,7.5067,7.5161,7.5198,7.5305,7.525,7.5288,7.5372,7.5414,7.5529,7.5399,7.5536,7.554,7.5515,7.5756,7.5786,7.5976,7.5679,7.5684,7.5687,0,7.4594,7.4684,7.489,7.4974,7.5019,7.5115,7.5218,7.5308,7.5389,7.5407,7.5478,7.5475,7.5602,7.552,7.5697,7.5609,7.5666,7.5695,7.5703,7.5716,7.5623,7.5775,7.6037,7.6065,7.5729,7.5726,7.5723,0,7.474,7.4912,7.5058,7.5103,7.5205,7.5273,7.5319,7.5395,7.546,7.555,7.5593,7.5697,7.5754,7.5834,7.5859,7.5797,7.6036,7.5955,7.6055,7.6055,7.6106,7.6102,7.638,7.6143,7.6143,7.6142,7.6141,0,7.4953,7.5081,7.5125,7.5215,7.5358,7.5376,7.5517,7.5559,7.5627,7.5726,7.5715,7.5808,7.5835,7.5933,7.5953,7.6097,7.6123,7.6142,7.6145,7.6143,7.614,7.618,7.6167,7.615,7.6148,7.6146,7.6145,0,7.514,7.5175,7.5333,7.5417,7.5441,7.5542,7.5614,7.5701,7.5734,7.5859,7.5889,7.594,7.6055,7.6088,7.6226,7.6239,7.6409,7.64,7.6381,7.6381,7.648,7.647,7.6793,7.6836,7.657,7.6573,7.6575,0,7.5274,7.5371,7.5466,7.5531,7.558,7.5685,7.5752,7.5774,7.5845,7.5946,7.6022,7.6135,7.6227,7.6411,7.6461,7.6567,7.6561,7.6667,7.6577,7.6572,7.6563,7.6557,7.6568,7.6684,7.6687,7.6689,7.6691,0,7.5508,7.5521,7.5618,7.5722,7.5802,7.5885,7.5965,7.6019,7.6053,7.6133,7.6251,7.6322,7.6464,7.6577,7.6684,7.6731,7.6718,7.6719,7.6748,7.6746,7.6731,7.6741,7.6428,7.6711,7.6709,7.6708,7.6707,7.6706,7.5673,7.5759,7.584,7.5948,7.6011,7.6086,7.6173,7.6217,7.6315,7.6432,7.6439,7.6567,7.6648,7.6791,7.6845,7.6945,7.6914,7.6956,7.6966,7.6976,7.6985,7.6715,7.6965,7.6964,7.6964,7.6963,7.6963,0,7.5907,7.5958,7.6058,7.617,7.6257,7.6236,7.6324,7.6398,7.651,7.6587,7.6678,7.6814,7.6924,7.6983,7.7093,7.7163,7.7159,7.7191,7.7186,7.7197,7.7006,7.697,7.7192,7.7192,7.7192,7.7192,7.7192,7.7192,7.6039,7.6184,7.6207,7.6384,7.6435,7.656,7.6612,7.6682,7.6743,7.6895,7.6987,7.7025,7.7095,7.7211,7.7311,7.7326,7.7367,7.7403,7.7414,7.7234,7.721,7.7188,7.7154,7.7411,7.7412,7.7597,7.7598,7.76]},{"header":{"parameterUnit":"m.s-1","parameterCategory":1,"la1":30.2991,"la2":30.254,"lo1":-89.0895,"lo2":-89.0444,"dy":0.0017,"dx":0.0017,"nx":28,"ny":28,"refTime":"2025-03-08T09:00:00:Z","depth":0,"parameterNumber":3,"parameterNumberName":"V-component_of_WINDS"},"data":[0,0,0,0,0,0,0,0,0,0,0,0,0,0,0,0,0,0,0,0,0,0,0,0,0,0,0,0,0,0,0,0,0,0,0,0,0,0,0,0,0,0,0,0,0,0,0,0,0,0,0,0,0,0,0,0,0,0,-4.47,-4.4701,0,-4.4782,-4.4783,-4.4783,-4.4753,-4.4752,-4.475,-4.4748,-4.483,-4.4834,-4.4838,0,0,0,0,0,0,0,0,0,0,0,0,0,-4.4518,-4.4522,-4.47,-4.4701,-4.4702,-4.4782,-4.4783,-4.4784,-4.4754,-4.4751,-4.4749,-4.4747,-4.4829,-4.4833,-4.4838,0,0,0,0,0,0,0,0,0,0,0,0,0,-4.4598,-4.4523,-4.47,-4.4697,-4.4697,-4.4781,-4.4783,-4.4784,-4.4754,-4.4751,-4.4749,-4.4746,-4.4827,-4.4833,-4.4839,-4.493,0,0,-4.4856,-4.4859,0,0,0,0,0,0,0,0,-4.4594,-4.4605,-4.4696,-4.4697,-4.4698,-4.4755,-4.4748,-4.4833,-4.4755,-4.4733,-4.4748,-4.4745,-4.4807,-4.4814,-4.4836,-4.4934,-4.4937,-4.4857,-4.486,-4.4863,-4.4865,0,0,0,0,0,0,0,-4.4588,-4.4601,-4.4732,-4.4698,-4.4699,-4.4691,-4.4699,-4.4764,-4.4784,-4.4734,-4.4732,-4.4742,-4.4807,-4.483,-4.4837,-4.4938,-4.4857,-4.4862,-4.4866,-4.4868,-4.5116,-4.5119,0,0,0,0,0,0,-4.4582,-4.4597,-4.473,-4.4735,-4.4638,-4.4697,-4.4706,-4.4739,-4.4783,-4.4788,-4.4745,-4.4741,-4.4821,-4.4831,-4.484,-4.495,-4.4863,-4.4868,-4.4872,-4.5113,-4.5117,-4.512,0,0,0,0,0,0,-4.4579,-4.4595,-4.4727,-4.4665,-4.4682,-4.4703,-4.474,-4.4742,-4.4765,-4.4791,-4.4795,-4.4765,-4.482,-4.4832,-4.4908,-4.4953,-4.4871,-4.4876,-4.511,-4.5114,-4.5119,-4.5171,0,0,0,0,0,0,-4.4574,-4.4593,-4.4628,-4.4666,-4.4685,-4.4794,-4.4743,-4.4746,-4.4776,-4.4771,-4.4811,-4.4815,-4.4818,-4.49,-4.4914,-4.4959,-4.4881,-4.5106,-4.5112,-4.5117,-4.5166,-4.5177,-4.5187,0,0,0,0,0,-4.4567,-4.464,-4.463,-4.4647,-4.4729,-4.4796,-4.4807,-4.481,-4.4779,-4.4815,-4.4832,-4.4814,-4.4946,-4.4908,-4.4923,-4.4971,-4.5103,-4.511,-4.5117,-4.5161,-4.5175,-4.5187,0,0,0,0,0,0,-4.4606,-4.4645,-4.4635,-4.4722,-4.4756,-4.4791,-4.4836,-4.4824,-4.4867,-4.4861,-4.4863,-4.4872,-4.4951,-4.4968,-4.4925,-4.5062,-4.502,-4.503,-4.5048,-4.5061,-4.5072,-4.5066,-4.4886,0,0,0,0,0,-4.4625,-4.4676,-4.4707,-4.4781,-4.4799,-4.4814,-4.4843,-4.4843,-4.4878,-4.4892,-4.4915,-4.4949,-4.4999,-4.5031,-4.5078,-4.5168,-4.5176,-4.5209,-4.522,-4.5228,-4.5237,-4.5287,-4.5302,-4.5143,-4.5143,-4.5143,0,0,-4.4664,-4.4691,-4.4724,-4.4789,-4.4816,-4.4869,-4.4827,-4.4884,-4.4924,-4.4901,-4.4974,-4.4992,-4.5031,-4.5115,-4.5153,-4.5132,-4.5283,-4.5237,-4.5244,-4.5248,-4.5296,-4.5311,-4.5324,-4.5148,-4.5147,-4.5146,0,0,-4.4762,-4.4788,-4.4853,-4.488,-4.4921,-4.4931,-4.4947,-4.4984,-4.4995,-4.5069,-4.5053,-4.51,-4.5185,-4.5213,-4.5239,-4.5349,-4.5334,-4.5364,-4.5419,-4.5468,-4.548,-4.5491,-4.5531,-4.5545,-4.5373,-4.5373,-4.5373,0,-4.4806,-4.4885,-4.4887,-4.4947,-4.4976,-4.4959,-4.5024,-4.5051,-4.5104,-4.5125,-4.5101,-4.5208,-4.5233,-4.5323,-4.535,-4.5371,-4.5389,-4.5359,-4.5478,-4.549,-4.55,-4.5538,-4.5552,-4.5376,-4.5376,-4.5375,-4.5375,0,-4.4936,-4.4992,-4.5039,-4.5092,-4.5127,-4.5189,-4.5201,-4.5235,-4.5232,-4.5245,-4.532,-4.535,-4.5402,-4.5424,-4.5421,-4.5514,-4.55,-4.5478,-4.5435,-4.5518,-4.5554,-4.5568,-4.5381,-4.538,-4.5379,-4.5378,0,0,-4.5061,-4.5115,-4.5133,-4.5157,-4.5201,-4.5244,-4.5305,-4.5357,-4.5387,-4.5425,-4.5476,-4.5549,-4.5528,-4.5557,-4.5557,-4.56,-4.5686,-4.5572,-4.5573,-4.5592,-4.5791,-4.5808,-4.5824,-4.5676,-4.5679,-4.5681,-4.5788,0,-4.5163,-4.5271,-4.5275,-4.5374,-4.5425,-4.541,-4.5463,-4.5496,-4.551,-4.5555,-4.557,-4.5621,-4.559,-4.5608,-4.5649,-4.5667,-4.5726,-4.5659,-4.5724,-4.5726,-4.5715,-4.5843,-4.5861,-4.596,-4.5802,-4.5804,-4.5806,0,-4.5297,-4.5339,-4.5443,-4.5481,-4.5502,-4.555,-4.5598,-4.5642,-4.5679,-4.5686,-4.5719,-4.5713,-4.5776,-4.5731,-4.5817,-4.5772,-4.5799,-4.5811,-4.5815,-4.5821,-4.5771,-4.5853,-4.5991,-4.6006,-4.5827,-4.5826,-4.5824,0,-4.5378,-4.5461,-4.5534,-4.5555,-4.56,-4.5634,-4.5655,-4.5689,-4.572,-4.5762,-4.5783,-4.5831,-4.5858,-4.5896,-4.5903,-4.587,-4.599,-4.5946,-4.5997,-4.5997,-4.6023,-4.6021,-4.6168,-4.6041,-4.604,-4.604,-4.604,0,-4.5491,-4.5555,-4.5571,-4.5616,-4.5688,-4.5692,-4.5762,-4.578,-4.5811,-4.5859,-4.5848,-4.5893,-4.59,-4.5947,-4.5953,-4.6024,-4.6036,-4.6043,-4.6044,-4.6045,-4.6044,-4.6062,-4.6056,-4.6044,-4.6043,-4.6042,-4.6042,0,-4.5594,-4.5607,-4.5685,-4.5722,-4.5732,-4.5784,-4.5815,-4.5858,-4.587,-4.5931,-4.5946,-4.5966,-4.6021,-4.6032,-4.6096,-4.61,-4.6185,-4.6179,-4.6173,-4.6172,-4.6223,-4.6218,-4.6387,-4.641,-4.6267,-4.6268,-4.627,0,-4.5665,-4.5714,-4.5756,-4.5788,-4.581,-4.5861,-4.5893,-4.5899,-4.5933,-4.5979,-4.6016,-4.607,-4.6113,-4.6202,-4.6222,-4.6271,-4.6266,-4.6322,-4.6274,-4.6273,-4.6267,-4.6265,-4.627,-4.6331,-4.6333,-4.6334,-4.6335,0,-4.5791,-4.5795,-4.5842,-4.5891,-4.593,-4.5969,-4.6006,-4.6032,-4.6043,-4.6082,-4.6138,-4.6171,-4.6238,-4.6291,-4.6341,-4.6362,-4.6351,-4.635,-4.6365,-4.6366,-4.636,-4.6364,-4.6198,-4.6346,-4.6345,-4.6344,-4.6344,-4.6343,-4.5881,-4.5924,-4.596,-4.6013,-4.6041,-4.6076,-4.6119,-4.6137,-4.6184,-4.6239,-4.6239,-4.6301,-4.6337,-4.6402,-4.6426,-4.6474,-4.6457,-4.6478,-4.6483,-4.6488,-4.6493,-4.6353,-4.6483,-4.6483,-4.6483,-4.6482,-4.6482,0,-4.6006,-4.6029,-4.6077,-4.613,-4.6171,-4.6157,-4.6198,-4.6233,-4.6287,-4.6322,-4.6365,-4.643,-4.6482,-4.6506,-4.6558,-4.6592,-4.6588,-4.6605,-4.6603,-4.6608,-4.6506,-4.6488,-4.6607,-4.6607,-4.6607,-4.6607,-4.6607,-4.6607,-4.6077,-4.6149,-4.6158,-4.6244,-4.6266,-4.6327,-4.6351,-4.6383,-4.6411,-4.6484,-4.6527,-4.6543,-4.6574,-4.6627,-4.6674,-4.668,-4.67,-4.6719,-4.6723,-4.6627,-4.6615,-4.6603,-4.6586,-4.6724,-4.6724,-4.6821,-4.6821,-4.6822]}]]